User: anonymous   Login
Location: Mississauga
(43.5802°N, 79.6166°W)
Time: 11:12:45
(UTC-04:00)
Language:

Cosmos 1437 Rocket - Orbit

View from above orbital plane
View from above orbital plane
View from above satellite
View from above satellite

Ground track
Ground track

The orbit data is extracted from the following two-line orbital elements,

1 13771U 83003B   16182.11366234  .00001283  00000-0  76993-4 0  9999
2 13771  81.1539  48.8235 0043848  92.8750 267.7495 15.09382311820672
Epoch (UTC): 30 June 2016 02:43:40
Eccentricity: 0.0043848
inclination: 81.1539°
perigee height: 508 km
apogee height: 568 km
right ascension of ascending node: 48.8235°
argument of perigee: 92.8750°
revolutions per day: 15.09382311
mean anomaly at epoch: 267.7495°
orbit number at epoch: 82067

The dashed part of the orbit path shows where the satellite is in the earth's shadow,  

DLR